TimeCST,TemperatureF,Dew PointF,Humidity,Sea Level PressureIn,VisibilityMPH,Wind Direction,Wind SpeedMPH,Gust SpeedMPH,PrecipitationIn,Events,Conditions,WindDirDegrees,DateUTC
12:15 AM,26.6,12.2,55,30.11,10.0,NW,5.8,17.3,N/A,,Mostly Cloudy,320,2013-02-17 06:15:00
12:35 AM,26.6,12.2,55,30.11,10.0,NNW,6.9,16.1,N/A,,Mostly Cloudy,340,2013-02-17 06:35:00
12:55 AM,26.6,14.0,59,30.11,10.0,NNW,9.2,-,N/A,,Overcast,340,2013-02-17 06:55:00
1:15 AM,26.6,14.0,59,30.12,10.0,North,8.1,-,N/A,,Overcast,360,2013-02-17 07:15:00
1:35 AM,26.6,14.0,59,30.12,10.0,NW,8.1,16.1,N/A,,Overcast,320,2013-02-17 07:35:00
1:55 AM,26.6,14.0,59,30.12,10.0,NW,6.9,-,N/A,,Overcast,320,2013-02-17 07:55:00
2:15 AM,26.6,14.0,59,30.12,10.0,NNW,3.5,-,N/A,,Overcast,330,2013-02-17 08:15:00
2:35 AM,26.6,14.0,59,30.11,10.0,NW,3.5,-,N/A,,Mostly Cloudy,320,2013-02-17 08:35:00
2:55 AM,24.8,14.0,64,30.11,10.0,Calm,Calm,-,N/A,,Scattered Clouds,0,2013-02-17 08:55:00
3:15 AM,24.8,14.0,64,30.12,10.0,WNW,4.6,-,N/A,,Clear,300,2013-02-17 09:15:00
3:35 AM,24.8,14.0,64,30.12,10.0,Calm,Calm,-,N/A,,Clear,0,2013-02-17 09:35:00
3:55 AM,24.8,14.0,64,30.12,10.0,Calm,Calm,-,N/A,,Scattered Clouds,0,2013-02-17 09:55:00
4:15 AM,24.8,14.0,64,30.13,10.0,Calm,Calm,-,N/A,,Mostly Cloudy,0,2013-02-17 10:15:00
4:35 AM,24.8,14.0,64,30.13,10.0,Calm,Calm,-,N/A,,Overcast,0,2013-02-17 10:35:00
4:55 AM,24.8,14.0,64,30.13,10.0,West,6.9,-,N/A,,Mostly Cloudy,270,2013-02-17 10:55:00
5:15 AM,24.8,15.8,69,30.14,10.0,Calm,Calm,-,N/A,,Mostly Cloudy,0,2013-02-17 11:15:00
5:35 AM,24.8,14.0,64,30.15,10.0,WNW,6.9,-,N/A,,Mostly Cloudy,290,2013-02-17 11:35:00
5:55 AM,24.8,14.0,64,30.15,10.0,WNW,4.6,-,N/A,,Scattered Clouds,290,2013-02-17 11:55:00
6:15 AM,24.8,14.0,64,30.16,10.0,NW,3.5,-,N/A,,Clear,310,2013-02-17 12:15:00
6:35 AM,24.8,15.8,69,30.16,10.0,Calm,Calm,-,N/A,,Clear,0,2013-02-17 12:35:00
6:55 AM,24.8,14.0,64,30.17,10.0,WNW,3.5,-,N/A,,Clear,290,2013-02-17 12:55:00
7:15 AM,24.8,15.8,69,30.18,10.0,Calm,Calm,-,N/A,,Scattered Clouds,0,2013-02-17 13:15:00
7:35 AM,26.6,15.8,64,30.19,10.0,Calm,Calm,-,N/A,,Mostly Cloudy,0,2013-02-17 13:35:00
7:55 AM,26.6,15.8,64,30.20,10.0,WNW,8.1,-,N/A,,Overcast,290,2013-02-17 13:55:00
8:15 AM,28.4,15.8,59,30.21,10.0,WNW,8.1,16.1,N/A,,Overcast,290,2013-02-17 14:15:00
8:35 AM,28.4,15.8,59,30.21,10.0,WNW,10.4,-,N/A,,Overcast,290,2013-02-17 14:35:00
8:55 AM,28.4,15.8,59,30.21,10.0,West,6.9,-,N/A,,Overcast,280,2013-02-17 14:55:00
9:15 AM,30.2,15.8,55,30.22,10.0,WNW,6.9,-,N/A,,Overcast,300,2013-02-17 15:15:00
9:35 AM,30.2,17.6,60,30.22,10.0,West,6.9,-,N/A,,Scattered Clouds,270,2013-02-17 15:35:00
9:55 AM,30.2,17.6,60,30.23,10.0,NW,9.2,-,N/A,,Scattered Clouds,320,2013-02-17 15:55:00
10:15 AM,33.8,17.6,52,30.23,10.0,WNW,5.8,16.1,N/A,,Scattered Clouds,290,2013-02-17 16:15:00
10:35 AM,33.8,17.6,52,30.23,10.0,WNW,10.4,24.2,N/A,,Scattered Clouds,290,2013-02-17 16:35:00
10:55 AM,35.6,17.6,48,30.23,10.0,NW,8.1,21.9,N/A,,Scattered Clouds,310,2013-02-17 16:55:00
11:15 AM,35.6,17.6,48,30.22,10.0,NW,12.7,18.4,N/A,,Scattered Clouds,310,2013-02-17 17:15:00
11:35 AM,35.6,17.6,48,30.22,10.0,NNW,12.7,16.1,N/A,,Scattered Clouds,340,2013-02-17 17:35:00
11:55 AM,35.6,15.8,44,30.21,10.0,NNW,9.2,21.9,N/A,,Scattered Clouds,340,2013-02-17 17:55:00
12:15 PM,37.4,17.6,45,30.20,10.0,NNW,15.0,23.0,N/A,,Clear,340,2013-02-17 18:15:00
12:35 PM,37.4,17.6,45,30.20,10.0,WNW,3.5,-,N/A,,Scattered Clouds,300,2013-02-17 18:35:00
12:55 PM,39.2,17.6,42,30.19,10.0,NNW,8.1,17.3,N/A,,Scattered Clouds,330,2013-02-17 18:55:00
1:15 PM,39.2,17.6,42,30.18,10.0,North,9.2,18.4,N/A,,Scattered Clouds,350,2013-02-17 19:15:00
1:35 PM,39.2,17.6,42,30.18,10.0,WNW,8.1,19.6,N/A,,Clear,300,2013-02-17 19:35:00
1:55 PM,39.2,17.6,42,30.18,10.0,North,8.1,-,N/A,,Clear,350,2013-02-17 19:55:00
2:15 PM,41.0,15.8,36,30.18,10.0,WNW,10.4,-,N/A,,Clear,290,2013-02-17 20:15:00
2:35 PM,41.0,14.0,33,30.18,10.0,West,10.4,17.3,N/A,,Clear,270,2013-02-17 20:35:00
2:55 PM,42.8,15.8,34,30.18,10.0,NNW,10.4,17.3,N/A,,Clear,330,2013-02-17 20:55:00
3:15 PM,41.0,14.0,33,30.18,10.0,North,10.4,18.4,N/A,,Clear,350,2013-02-17 21:15:00
3:35 PM,41.0,12.2,31,30.18,10.0,NNW,13.8,18.4,N/A,,Clear,340,2013-02-17 21:35:00
3:55 PM,39.2,14.0,36,30.18,10.0,NW,5.8,16.1,N/A,,Clear,310,2013-02-17 21:55:00
4:15 PM,39.2,14.0,36,30.19,10.0,NW,6.9,-,N/A,,Clear,320,2013-02-17 22:15:00
4:35 PM,37.4,12.2,36,30.19,10.0,WNW,5.8,-,N/A,,Clear,300,2013-02-17 22:35:00
4:55 PM,37.4,12.2,36,30.19,10.0,NNW,4.6,-,N/A,,Clear,330,2013-02-17 22:55:00
5:15 PM,35.6,14.0,41,30.19,10.0,Calm,Calm,-,N/A,,Clear,0,2013-02-17 23:15:00
5:35 PM,35.6,12.2,38,30.20,10.0,Calm,Calm,-,N/A,,Clear,0,2013-02-17 23:35:00
5:55 PM,33.8,19.4,56,30.21,10.0,Calm,Calm,-,N/A,,Clear,0,2013-02-17 23:55:00
6:15 PM,30.2,19.4,64,30.20,10.0,Calm,Calm,-,N/A,,Clear,0,2013-02-18 00:15:00
6:35 PM,30.2,19.4,64,30.21,10.0,Calm,Calm,-,N/A,,Clear,0,2013-02-18 00:35:00
6:55 PM,30.2,19.4,64,30.21,10.0,Calm,Calm,-,N/A,,Clear,0,2013-02-18 00:55:00
7:15 PM,28.4,19.4,69,30.22,10.0,Calm,Calm,-,N/A,,Clear,0,2013-02-18 01:15:00
7:35 PM,26.6,19.4,74,30.22,10.0,Calm,Calm,-,N/A,,Clear,0,2013-02-18 01:35:00
7:55 PM,26.6,19.4,74,30.22,10.0,Calm,Calm,-,N/A,,Clear,0,2013-02-18 01:55:00
8:15 PM,26.6,19.4,74,30.23,10.0,Calm,Calm,-,N/A,,Clear,0,2013-02-18 02:15:00
8:35 PM,26.6,21.2,80,30.23,10.0,Calm,Calm,-,N/A,,Clear,0,2013-02-18 02:35:00
8:55 PM,26.6,19.4,74,30.24,7.0,Calm,Calm,-,N/A,,Clear,0,2013-02-18 02:55:00
9:15 PM,24.8,19.4,80,30.24,10.0,Calm,Calm,-,N/A,,Clear,0,2013-02-18 03:15:00
9:35 PM,24.8,19.4,80,30.24,10.0,Calm,Calm,-,N/A,,Clear,0,2013-02-18 03:35:00
9:55 PM,24.8,19.4,80,30.24,10.0,Calm,Calm,-,N/A,,Clear,0,2013-02-18 03:55:00
10:15 PM,24.8,19.4,80,30.24,10.0,Calm,Calm,-,N/A,,Clear,0,2013-02-18 04:15:00
10:35 PM,24.8,21.2,86,30.24,10.0,Calm,Calm,-,N/A,,Clear,0,2013-02-18 04:35:00
10:55 PM,24.8,19.4,80,30.23,10.0,Calm,Calm,-,N/A,,Clear,0,2013-02-18 04:55:00
11:15 PM,23.0,19.4,86,30.24,10.0,Calm,Calm,-,N/A,,Clear,0,2013-02-18 05:15:00
11:35 PM,23.0,19.4,86,30.24,10.0,Calm,Calm,-,N/A,,Clear,0,2013-02-18 05:35:00
11:55 PM,23.0,19.4,86,30.24,10.0,Calm,Calm,-,N/A,,Clear,0,2013-02-18 05:55:00